Content
SEND FEEDBACK

Daily
Averages
Monthly
Summary
Mexico

COZUMEL, QUINTANA ROO


Home > North America > Mexico > Quintana Roo
Elevation: 15 feet     Latitude: 20 31N     Longitude: 086 56W

WEATHER
 
SELECT A DAY
Number of Records: 124,799;   Date Range: 1/1/95 - 8/31/14
 
SHARE

PRINT THIS DATA

[ ← Previous Day ]
WEATHER ALMANAC - NOVEMBER 29, 2013
[ Next Day → ]
[ °C ]   °F
Weather ElementAverageHighLow
Temperature70.6 °F75.2 °F (10:40 am)68 °F (1:46 am)
Dewpoint64.2 °F69.8 °F (8:40 am)59 °F (9:40 am)
Humidity81 %100 % (8:44 pm)61 % (9:40 am)
Barometer30.15 in30.24 in (8:40 am)29.96 in (4:47 am)
Wind Speed12.8 mph18.4 mph (6:43 pm)
Wind Gust25.3 mph (4:41 pm)
Weather ElementAverage
Visibility7 mi
Wind DirectionS (180.9 °)

Weather ElementTotal
Precipitation---
Cooling Degree Days6.6 (Base 65)
Growing Degree Days21.6 (Base 50)
Averaged from 23 records on November 29, 2013
WEATHER CONDITIONS BREAKOUT
WIND DIRECTION BREAKOUT
WEATHER BY HOUR - NOVEMBER 29, 2013
[ °C ]   °F
Local TimeTemperatureDewpointHumidityBarometerVisibilityWind DirectionWind SpeedGust SpeedPrecipitationEventsConditions
1:46 AM68.0 °F62.6 °F83 %30.15 in7.0 miNorth (360°)16.1 mphClear
2:42 AM68.0 °F62.6 °F83 %30.18 in7.0 miNorth (360°)15.0 mphClear
3:42 AM68.0 °F62.6 °F83 %30.15 in7.0 miNNE (20°)13.8 mphClear
4:47 AM68.0 °F62.6 °F83 %29.96 in7.0 miNNE (30°)10.4 mphClear
5:40 AM69.8 °F62.6 °F78 %30.14 in7.0 miNorth (10°)15.0 mphClear
6:42 AM69.8 °F60.8 °F73 %30.18 in7.0 miNNE (30°)11.5 mphClear
7:40 AM69.8 °F60.8 °F73 %30.18 in7.0 miNNE (30°)10.4 mph21.9 mphClear
8:40 AM73.4 °F69.8 °F88 %30.24 in7.0 miNorth (10°)17.3 mphClear
9:40 AM73.4 °F59.0 °F61 %30.21 in7.0 miNorth (10°)17.3 mphClear
10:40 AM75.2 °F60.8 °F61 %30.20 in7.0 miNNE (20°)9.2 mph20.7 mphPartly Cloudy
11:40 AM75.2 °F60.8 °F61 %30.16 in7.0 miNorth (10°)16.1 mphMostly Cloudy
12:40 PM75.2 °F62.6 °F65 %30.15 in7.0 miNorth (360°)16.1 mphScattered Clouds
1:40 PM73.4 °F62.6 °F69 %30.13 in7.0 miNorth (360°)11.5 mph23.0 mphMostly Cloudy
2:49 PM71.6 °F64.4 °F78 %30.14 in7.0 miNorth (360°)11.5 mph23.0 mphOvercast
3:49 PM71.6 °F64.4 °F78 %30.11 in7.0 miNorth (350°)17.3 mphMostly Cloudy
4:41 PM69.8 °F64.4 °F83 %30.11 in7.0 miNorth (350°)11.5 mph25.3 mphScattered Clouds
5:42 PM69.8 °F66.2 °F88 %30.11 in7.0 miNNW (340°)17.3 mphScattered Clouds
6:43 PM69.8 °F66.2 °F88 %30.12 in7.0 miNorth (350°)18.4 mphScattered Clouds
7:45 PM68.0 °F66.2 °F94 %30.15 in7.0 miWest (260°)15.0 mphMostly Cloudy
8:44 PM69.8 °F69.8 °F100 %30.18 in7.0 miNorth (360°)6.9 mphMostly Cloudy
9:45 PM69.8 °F69.8 °F100 %30.15 in7.0 miNorth (10°)5.8 mphMostly Cloudy
10:47 PM68.0 °F66.2 °F94 %30.14 in7.0 miESE (110°)4.6 mphMostly Cloudy
11:50 PM68.0 °F68.0 °F100 %30.10 in7.0 miENE (60°)6.9 mphMostly Cloudy
Hourly data recorded from MMCZ, located miles away from Cozumel, Quintana Roo







STORIES FROM OUR PARTNERS